Starlink 5715

operational
NORAD ID: 55613 Int'l Des: 2023-020 Owner: SPXS Country: US Constellation: starlink
LEOCIRCULAR

About Starlink 5715

Description loading...

Live Position

Loading 3D Globe...

Upcoming Passes

Altitude History

Altitude vs Time

uPlot chart will show altitude changes over time

Two-Line Element Set

1 55613U 23020AW 25312.83335647 .01118953 00000-0 36974-2 0 9998
2 55613 42.9996 269.2537 0001585 238.9389 29.2888 15.87302084 5927
Epoch: Nov 8, 2025 • Age: 57 hours

Current Status

Altitude 307.1 km
Velocity 7.72 km/s
Sub-Earth Point -42.35°S, 21.43°E
Launch Date Feb 12, 2023
Age 2.7 years
Type internet

Technical Details

Classification Payload
Mass 305.00 kg
Dry Mass 290.00 kg
Total Mass 305.00 kg
Length 0.20 m
Diameter 2.80 m
Span 9.00 m
Shape Box + pan
Manufacturer SPXS
Bus Type Starlink
Phase Status In Orbit
Owner/State SPXS/US

Large Constellations

Loading constellations...